DW3753 Weather Reports


time (UTC)temp
F
wind
direction
speed
knots
gust
knots
rain 1hr
in
rain 24hr
in
rain mn
in
humidity
%
barometer
mb
20260506090844 56 17 1.7 8.7 0.00 0.00 0.00 77 1008.7
20260506085846 56 338 3.5 9.6 0.00 0.00 0.00 77 1008.7
20260506084844 56 341 2.6 7.8 0.00 0.00 0.00 77 1008.7
20260506083844 57 80 2.6 7.8 0.00 0.00 0.00 78 1008.6
20260506082843 57 5 2.6 7.8 0.00 0.00 0.00 78 1008.3
20260506081845 57 339 2.6 7.8 0.00 0.00 0.00 78 1008.3
20260506081326 57 339 3.5 10.4 0.00 0.00 0.00 78 1008.5
20260506072838 57 329 1.7 7.0 0.00 0.00 0.00 80 1008.4
20260506071839 57 342 0.0 2.6 0.00 0.00 0.00 80 1007.9
20260506071322 57 5 0.0 2.6 0.00 0.00 0.00 80 1008.0
20260506061839 59 50 1.7 7.8 0.00 0.00 0.00 80 1008.1
20260506060832 59 0 1.7 5.2 0.00 0.00 0.00 80 1008.0
20260506051406 60 5 1.7 5.2 0.00 0.00 0.00 79 1008.2
20260506051230 60 20 2.6 7.0 0.00 0.00 0.00 78 1008.2
20260506044831 61 11 1.7 6.1 0.00 0.00 0.00 78 1008.1
20260506043835 61 344 1.7 7.0 0.00 0.00 0.00 78 1007.9
20260506042824 62 0 1.7 7.0 0.00 0.00 0.00 78 1007.9
20260506041823 62 5 2.6 8.7 0.00 0.00 0.00 78 1007.9
20260506040831 62 338 3.5 10.4 0.00 0.00 0.00 77 1007.9
20260506035823 62 38 3.5 12.2 0.00 0.00 0.00 77 1007.9
20260506034824 63 54 2.6 10.4 0.00 0.00 0.00 77 1007.9
20260506033826 63 346 4.3 13.9 0.00 0.00 0.00 76 1007.5
20260506032823 64 0 4.3 11.3 0.00 0.00 0.00 76 1007.3
20260506031826 64 327 4.3 10.4 0.00 0.00 0.00 75 1006.9
20260506030819 65 5 1.7 7.0 0.00 0.00 0.00 75 1006.7
20260506025818 65 355 2.6 7.8 0.00 0.00 0.00 74 1006.5
20260506025255 66 0 3.5 11.3 0.00 0.00 0.00 73 1006.4
20260506023818 66 9 0.9 5.2 0.00 0.00 0.00 74 1006.2
20260506022818 66 16 2.6 8.7 0.00 0.00 0.00 73 1006.1
20260506021819 67 343 2.6 7.8 0.00 0.00 0.00 72 1006.0
20260506020820 67 346 1.7 7.0 0.00 0.00 0.00 72 1005.6
20260506015818 67 355 3.5 8.7 0.00 0.00 0.00 72 1005.6
20260506014818 67 351 1.7 7.0 0.00 0.00 0.00 72 1005.6
20260506013815 68 15 0.9 4.3 0.00 0.00 0.00 71 1005.0
20260506013216 69 5 0.9 7.0 0.00 0.00 0.00 71 1004.6
20260506012851 69 5 1.7 8.7 0.00 0.00 0.00 71 1004.9
20260506011304 70 31 2.6 8.7 0.00 0.00 0.00 70 1004.2
20260506005818 70 16 1.7 8.7 0.00 0.00 0.00 69 1004.2
20260506004816 71 5 3.5 9.6 0.00 0.00 0.00 68 1003.8
20260506003816 71 5 2.6 10.4 0.00 0.00 0.00 68 1004.0
20260506002817 72 355 3.5 11.3 0.00 0.00 0.00 67 1003.6
20260506001810 73 5 9.6 16.5 0.00 0.00 0.00 65 1003.2
20260506000812 74 350 7.0 13.0 0.00 0.00 0.00 66 1003.2
20260506000257 74 344 8.7 14.8 0.00 0.00 0.00 64 1003.3
20260505234810 75 355 7.8 13.9 0.00 0.00 0.00 63 1003.2
20260505233809 75 355 7.8 12.2 0.00 0.00 0.00 62 1003.2
20260505232811 76 0 7.8 13.9 0.00 0.00 0.00 61 1003.2
20260505231810 76 0 8.7 13.0 0.00 0.00 0.00 61 1003.2
20260505230811 77 344 7.8 13.9 0.00 0.00 0.00 60 1003.2
20260505225810 78 291 9.6 15.6 0.00 0.00 0.00 58 1002.8
20260505225734 79 330 7.8 13.0 0.00 0.00 0.00 59 1003.1
20260505223806 79 315 10.4 14.8 0.00 0.00 0.00 58 1002.5
20260505222804 81 0 9.6 14.8 0.00 0.00 0.00 58 1002.4
20260505221804 82 298 8.7 15.6 0.00 0.00 0.00 57 1002.5
20260505220802 83 310 7.8 12.2 0.00 0.00 0.00 56 1002.2
20260505220716 84 286 7.0 13.0 0.00 0.00 0.00 51 1002.2
20260505215238 84 337 7.0 12.2 0.00 0.00 0.00 48 1002.1
20260505214237 84 340 7.0 11.3 0.00 0.00 0.00 48 1002.3
20260505212806 84 338 7.8 13.0 0.00 0.00 0.00 48 1002.3
20260505212242 85 348 8.7 14.8 0.00 0.00 0.00 48 1002.1
20260505211249 85 338 8.7 16.5 0.00 0.00 0.00 45 1002.2
20260505205759 89 274 5.2 9.6 0.00 0.00 0.00 51 1002.3
20260505204759 88 244 6.1 9.6 0.00 0.00 0.00 50 1002.3
20260505204725 88 207 5.2 9.6 0.00 0.00 0.00 51 1002.4
20260505202759 88 285 5.2 9.6 0.00 0.00 0.00 52 1002.4
20260505201758 88 250 5.2 12.2 0.00 0.00 0.00 52 1002.5
20260505200759 87 248 5.2 10.4 0.00 0.00 0.00 52 1002.8
20260505195759 87 246 7.0 11.3 0.00 0.00 0.00 52 1002.9
20260505194753 87 236 5.2 10.4 0.00 0.00 0.00 52 1003.0
20260505193754 87 266 6.1 9.6 0.00 0.00 0.00 52 1002.9
20260505192753 87 254 6.1 10.4 0.00 0.00 0.00 54 1003.0
20260505191752 86 213 7.0 12.2 0.00 0.00 0.00 54 1003.1
20260505190753 85 207 7.8 13.0 0.00 0.00 0.00 56 1002.9
20260505190239 85 240 7.8 12.2 0.00 0.00 0.00 57 1002.8
20260505185232 84 217 7.8 12.2 0.00 0.00 0.00 58 1002.8
20260505184234 84 194 7.8 12.2 0.00 0.00 0.00 62 1002.9
20260505182752 83 202 7.8 14.8 0.00 0.00 0.00 63 1003.0
20260505182707 83 203 9.6 15.6 0.00 0.00 0.00 65 1003.1
20260505180749 83 183 8.7 14.8 0.00 0.00 0.00 64 1003.1
20260505175745 83 213 7.8 13.0 0.00 0.00 0.00 65 1003.1
20260505174746 82 195 8.7 14.8 0.00 0.00 0.00 65 1003.2
20260505174228 82 200 9.6 17.4 0.00 0.00 0.00 64 1003.0
20260505172747 82 178 9.6 16.5 0.00 0.00 0.00 65 1003.0
20260505171747 82 200 9.6 17.4 0.00 0.00 0.00 65 1003.0
20260505170745 82 209 8.7 14.8 0.00 0.00 0.00 66 1003.2
20260505165747 81 238 10.4 16.5 0.00 0.00 0.00 66 1003.1
20260505164743 81 225 10.4 19.1 0.00 0.00 0.00 67 1003.2
20260505163743 80 192 10.4 18.2 0.00 0.00 0.00 68 1003.1
20260505162743 79 221 8.7 13.9 0.00 0.00 0.00 71 1003.0
20260505162233 78 196 9.6 14.8 0.00 0.00 0.00 72 1003.0
20260505160745 79 179 9.6 15.6 0.00 0.00 0.00 71 1002.9
20260505153222 76 193 10.4 17.4 0.00 0.00 0.00 77 1002.7
20260505152228 75 218 8.7 16.5 0.00 0.00 0.00 78 1002.7
20260505151709 75 185 11.3 18.2 0.00 0.00 0.00 77 1002.7
20260505140208 73 195 11.3 16.5 0.00 0.00 0.00 81 1002.8
20260505124726 70 199 8.7 15.6 0.00 0.00 0.00 85 1002.2
20260505123723 70 199 8.7 14.8 0.00 0.00 0.00 85 1002.0
20260505122721 70 223 8.7 15.6 0.00 0.00 0.00 85 1001.8
20260505121723 70 195 9.6 14.8 0.00 0.00 0.00 85 1001.7
20260505120721 70 174 8.7 14.8 0.00 0.00 0.00 85 1001.6
20260505115721 69 174 7.8 13.9 0.00 0.00 0.00 85 1001.6
20260505114722 69 164 8.7 18.2 0.00 0.00 0.00 85 1001.5
20260505113722 69 207 8.7 18.2 0.00 0.00 0.00 85 1001.5
20260505112721 69 164 7.0 13.9 0.00 0.00 0.00 86 1001.5
20260505111725 69 181 7.0 13.9 0.00 0.00 0.00 85 1001.4
20260505110721 69 186 7.0 14.8 0.00 0.00 0.00 85 1001.4
20260505110218 69 177 7.0 14.8 0.00 0.00 0.00 85 1001.4
20260505101723 69 178 5.2 11.3 0.00 0.00 0.00 85 1001.4
20260505100721 69 201 6.1 12.2 0.00 0.00 0.00 85 1001.4
20260505095720 69 184 5.2 13.0 0.00 0.00 0.00 84 1001.5
20260505094720 70 196 6.1 13.0 0.00 0.00 0.00 84 1001.6
20260505093720 70 190 6.1 12.2 0.00 0.00 0.00 84 1001.5
20260505092719 70 154 6.1 12.2 0.00 0.00 0.00 83 1001.5